Home > Weather > Victoria > Past weeks

Flag for Seychelles Weather for the Past 2 Weeks in Victoria, Seychelles

Now
84 °F

Passing clouds.


Feels Like: 96 °F
Forecast: 76 / 82 °F
Wind: 13 mph from Northwest

Location: National Airport

Current Time: Feb 7, 2016 at 8:17:13 PM

Latest Report: Feb 7, 2016 at 7:00 PM


Visibility: N/A

Pressure: 29.83 "Hg

Humidity: 84%

Dew point: 79 °F

Location of VictoriaLocation

Historic Weather in Victoria — Graph

°F

Victoria Temperature Yesterday

Maximum temperature yesterday: 88 °F (at 11:00 AM)
Minimum temperature yesterday: 82 °F (at 12:00 AM)
Average temperature yesterday: 85 °F

High & Low Weather Summary for the Past Weeks

 TemperatureHumidityPressure
High90 °F (Feb 3, 12:00 PM)94% (Jan 24, 5:00 AM)29.95 "Hg (Jan 24, 5:00 AM)
Low75 °F (Jan 25, 6:00 PM)63% (Feb 3, 1:00 PM)29.77 "Hg (Jan 31, 4:00 PM)
Average83 °F81%29.86 "Hg
* Reported Jan 23 7:00 PM — Feb 7 7:00 PM, Victoria, Weather by CustomWeather, © 2016

Note: Actual official high and low records may vary slightly from our data, if they occured in-between our weather recording intervals... More about our weather records

Advertising

Victoria Weather History for the Previous 24 Hours

 ConditionsComfort  
Time TempWeatherWind HumidityBarometerVisibility
7:00 PM
Sun, Feb 7
84 °FPassing clouds.13 mph84%29.83 "HgN/A
6:00 PM86 °FPartly sunny.10 mph75%29.80 "HgN/A
5:00 PM86 °FPartly sunny.10 mph75%29.80 "HgN/A
4:00 PM86 °FPartly sunny.7 mph75%29.80 "HgN/A
3:00 PM84 °FPartly sunny.12 mph79%29.80 "HgN/A
2:00 PM86 °FSprinkles. Partly sunny.12 mph79%29.80 "HgN/A
1:00 PM84 °FSprinkles. Partly sunny.9 mph84%29.83 "HgN/A
12:00 PM86 °FSprinkles. Partly sunny.10 mph79%29.86 "HgN/A
11:00 AM86 °FPartly sunny.10 mph75%29.89 "HgN/A
10:00 AM86 °FPartly sunny.10 mph79%29.89 "HgN/A
9:00 AM84 °FSprinkles. Cloudy.12 mph84%29.89 "HgN/A
8:00 AM84 °FSprinkles. Cloudy.7 mph84%29.86 "HgN/A
7:00 AM82 °FPartly sunny.9 mph84%29.83 "HgN/A
6:00 AM82 °FPassing clouds.7 mph84%29.83 "HgN/A
5:00 AM84 °FPassing clouds.8 mph79%29.80 "HgN/A
4:00 AM84 °FPassing clouds.7 mph79%29.80 "HgN/A
3:00 AM82 °FPassing clouds.9 mph84%29.80 "HgN/A
2:00 AM82 °FPassing clouds.6 mph84%29.80 "HgN/A
1:00 AM82 °FPassing clouds.9 mph84%29.83 "HgN/A
12:00 AM84 °FPassing clouds.9 mph79%29.83 "HgN/A
11:00 PM
Sat, Feb 6
84 °FPassing clouds.6 mph79%29.86 "HgN/A
10:00 PM84 °FPassing clouds.5 mph79%29.86 "HgN/A
9:00 PM84 °FPassing clouds.5 mph79%29.86 "HgN/A
8:00 PM84 °FPassing clouds.5 mph79%29.83 "HgN/A
Weather by CustomWeather, © 2016

See weather overviewHow to use our weather pages